| time (UTC) | temp F | wind direction | speed knots | gust knots | rain 1hr in | rain 24hr in | rain mn in | humidity % | barometer mb |
| 20260505122411 | 50 | 0 | 0.0 | 0.0 | 0.00 | 0.00 | 0.00 | 88 | 1015.8 |
| 20260505121809 | 50 | 0 | 0.0 | 0.0 | 0.00 | 0.00 | 0.00 | 88 | 1015.8 |
| 20260505120910 | 50 | 0 | 0.0 | 0.0 | 0.00 | 0.00 | 0.00 | 88 | 1015.6 |
| 20260505120309 | 50 | 0 | 0.0 | 0.0 | 0.00 | 0.00 | 0.00 | 88 | 1015.6 |
| 20260505115410 | 50 | 0 | 0.0 | 0.9 | 0.00 | 0.00 | 0.00 | 88 | 1015.6 |
| 20260505114809 | 50 | 0 | 0.0 | 0.9 | 0.00 | 0.00 | 0.00 | 88 | 1015.5 |
| 20260505113911 | 50 | 0 | 0.0 | 0.9 | 0.00 | 0.00 | 0.00 | 88 | 1015.5 |
| 20260505113309 | 50 | 0 | 0.0 | 0.9 | 0.00 | 0.00 | 0.00 | 88 | 1015.5 |
| 20260505112410 | 50 | 0 | 0.0 | 1.7 | 0.00 | 0.00 | 0.00 | 88 | 1015.5 |
| 20260505111809 | 50 | 0 | 0.0 | 1.7 | 0.00 | 0.00 | 0.00 | 88 | 1015.5 |
| 20260505110911 | 50 | 0 | 0.0 | 1.7 | 0.00 | 0.00 | 0.00 | 88 | 1015.4 |
| 20260505110309 | 50 | 0 | 0.0 | 1.7 | 0.00 | 0.00 | 0.00 | 88 | 1015.5 |
| 20260505101809 | 50 | 0 | 0.0 | 3.5 | 0.00 | 0.00 | 0.00 | 88 | 1015.2 |
| 20260505100910 | 50 | 0 | 0.0 | 3.5 | 0.00 | 0.00 | 0.00 | 88 | 1015.2 |
| 20260505100309 | 50 | 0 | 0.0 | 3.5 | 0.00 | 0.00 | 0.00 | 88 | 1015.2 |
| 20260505095410 | 50 | 0 | 0.0 | 2.6 | 0.00 | 0.00 | 0.00 | 88 | 1015.1 |
| 20260505094809 | 50 | 0 | 0.0 | 2.6 | 0.00 | 0.00 | 0.00 | 88 | 1015.1 |
| 20260505093911 | 50 | 0 | 0.0 | 2.6 | 0.00 | 0.00 | 0.00 | 88 | 1015.0 |
| 20260505093309 | 50 | 0 | 0.0 | 0.0 | 0.00 | 0.00 | 0.00 | 88 | 1015.0 |
| 20260505092410 | 50 | 0 | 0.0 | 1.7 | 0.00 | 0.00 | 0.00 | 88 | 1014.9 |
| 20260505091809 | 50 | 0 | 0.0 | 1.7 | 0.00 | 0.00 | 0.00 | 88 | 1015.0 |
| 20260505090910 | 50 | 0 | 0.0 | 0.9 | 0.00 | 0.00 | 0.00 | 88 | 1014.8 |
| 20260505090309 | 50 | 0 | 0.0 | 0.9 | 0.00 | 0.00 | 0.00 | 88 | 1014.7 |
| 20260505085411 | 50 | 0 | 0.0 | 4.3 | 0.00 | 0.00 | 0.00 | 88 | 1014.7 |
| 20260505084809 | 50 | 0 | 0.0 | 4.3 | 0.00 | 0.00 | 0.00 | 88 | 1014.8 |
| 20260505083910 | 50 | 0 | 0.0 | 4.3 | 0.00 | 0.00 | 0.00 | 88 | 1014.8 |
| 20260505083309 | 50 | 0 | 0.0 | 4.3 | 0.00 | 0.00 | 0.00 | 88 | 1014.9 |
| 20260505082410 | 50 | 0 | 0.0 | 7.8 | 0.00 | 0.00 | 0.00 | 88 | 1014.8 |
| 20260505081809 | 50 | 0 | 0.0 | 7.8 | 0.00 | 0.00 | 0.00 | 88 | 1014.7 |
| 20260505080910 | 50 | 0 | 0.0 | 7.8 | 0.00 | 0.00 | 0.00 | 88 | 1014.7 |
| 20260505080309 | 50 | 304 | 4.3 | 7.8 | 0.00 | 0.00 | 0.00 | 88 | 1014.7 |
| 20260505075411 | 50 | 259 | 0.9 | 8.7 | 0.00 | 0.00 | 0.00 | 88 | 1014.7 |
| 20260505074809 | 50 | 0 | 0.0 | 8.7 | 0.00 | 0.00 | 0.00 | 88 | 1014.6 |
| 20260505073911 | 50 | 239 | 5.2 | 8.7 | 0.00 | 0.00 | 0.00 | 88 | 1014.5 |
| 20260505073310 | 50 | 0 | 0.0 | 7.8 | 0.00 | 0.00 | 0.00 | 88 | 1014.4 |
| 20260505072411 | 50 | 0 | 0.0 | 9.6 | 0.00 | 0.00 | 0.00 | 88 | 1014.4 |
| 20260505071810 | 50 | 0 | 0.0 | 9.6 | 0.00 | 0.00 | 0.00 | 88 | 1014.4 |
| 20260505070912 | 50 | 232 | 8.7 | 8.7 | 0.00 | 0.00 | 0.00 | 88 | 1014.2 |
| 20260505070310 | 50 | 254 | 3.5 | 5.2 | 0.00 | 0.00 | 0.00 | 88 | 1014.1 |
| 20260505065411 | 50 | 0 | 0.0 | 10.4 | 0.00 | 0.00 | 0.00 | 88 | 1014.1 |
| 20260505064810 | 50 | 0 | 5.2 | 10.4 | 0.00 | 0.00 | 0.00 | 88 | 1014.1 |
| 20260505063912 | 50 | 0 | 0.0 | 10.4 | 0.00 | 0.00 | 0.00 | 88 | 1014.1 |
| 20260505063310 | 50 | 270 | 5.2 | 10.4 | 0.00 | 0.00 | 0.00 | 88 | 1014.1 |
| 20260505062411 | 50 | 0 | 0.0 | 13.9 | 0.00 | 0.00 | 0.00 | 88 | 1014.1 |
| 20260505061810 | 50 | 0 | 0.0 | 13.9 | 0.00 | 0.00 | 0.00 | 88 | 1014.0 |
| 20260505060911 | 50 | 0 | 0.0 | 13.9 | 0.00 | 0.00 | 0.00 | 88 | 1014.0 |
| 20260505060310 | 50 | 0 | 7.8 | 13.9 | 0.00 | 0.00 | 0.00 | 88 | 1013.9 |
| 20260505055411 | 50 | 0 | 0.0 | 14.8 | 0.00 | 0.00 | 0.00 | 88 | 1013.8 |
| 20260505054810 | 50 | 269 | 0.9 | 14.8 | 0.00 | 0.00 | 0.00 | 88 | 1013.7 |
| 20260505053911 | 50 | 0 | 8.7 | 14.8 | 0.00 | 0.00 | 0.00 | 88 | 1013.6 |
| 20260505053309 | 50 | 263 | 7.0 | 14.8 | 0.00 | 0.00 | 0.00 | 88 | 1013.5 |
| 20260505052411 | 50 | 0 | 0.0 | 13.0 | 0.00 | 0.00 | 0.00 | 88 | 1013.5 |
| 20260505051809 | 50 | 268 | 11.3 | 13.0 | 0.00 | 0.00 | 0.00 | 88 | 1013.5 |
| 20260505050911 | 50 | 285 | 7.8 | 12.2 | 0.00 | 0.00 | 0.00 | 88 | 1013.4 |
| 20260505050309 | 50 | 0 | 0.0 | 8.7 | 0.00 | 0.00 | 0.00 | 88 | 1013.4 |
| 20260505040911 | 51 | 244 | 8.7 | 13.0 | 0.00 | 0.00 | 0.00 | 87 | 1013.1 |
| 20260505040309 | 51 | 0 | 10.4 | 12.2 | 0.00 | 0.00 | 0.00 | 87 | 1013.0 |
| 20260505035410 | 52 | 0 | 5.2 | 15.6 | 0.00 | 0.00 | 0.00 | 87 | 1012.8 |
| 20260505034809 | 52 | 233 | 0.9 | 15.6 | 0.00 | 0.00 | 0.00 | 87 | 1012.7 |
| 20260505033912 | 52 | 0 | 11.3 | 13.0 | 0.00 | 0.00 | 0.00 | 87 | 1012.5 |
| 20260505033309 | 52 | 0 | 9.6 | 11.3 | 0.00 | 0.00 | 0.00 | 87 | 1012.5 |